Location: Diebersbach
(48.5163°N, 8.0558°E)
Time: 03:48:07
(UTC+00:00)

ATLAS 5 CENTAUR R/B - Visible Passes

Search period start: 19 October 2021 00:00
Search period end: 29 October 2021 00:00
Orbit: 499 x 1157 km, 63.3° (Epoch: 17 October)

Date Brightness Start Highest point End Pass type
(mag) Time Alt. Az. Time Alt. Az. Time Alt. Az.
19 Oct 1.4 17:43:34 10° SSW 17:47:22 60° SE 17:50:55 14° NE visible
19 Oct 3.4 19:28:52 10° W 19:32:20 26° NNW 19:32:27 26° NNW visible
20 Oct 1.5 17:24:11 10° SSW 17:27:57 55° SE 17:32:12 10° NE visible
20 Oct 3.3 19:09:21 10° W 19:12:51 27° NNW 19:13:58 24° N visible
21 Oct 1.6 17:04:48 10° SSW 17:08:31 50° SE 17:12:44 10° NE visible
21 Oct 3.2 18:49:50 10° W 18:53:23 28° NNW 18:55:23 20° N visible
22 Oct 3.2 18:30:19 10° W 18:33:54 29° NNW 18:36:43 16° NNE visible
22 Oct 4.6 20:17:31 10° NW 20:18:15 12° NNW 20:18:15 12° NNW visible
23 Oct 3.1 18:10:48 10° W 18:14:25 31° NNW 18:18:00 12° NNE visible
23 Oct 4.4 19:57:59 10° NW 19:59:31 14° NNW 19:59:31 14° NNW visible
24 Oct 3.0 17:51:18 10° W 17:54:56 32° NW 17:59:06 10° NNE visible
24 Oct 4.2 19:38:27 10° NW 19:40:45 15° NNW 19:40:45 15° NNW visible
25 Oct 2.9 17:31:47 10° WSW 17:35:28 34° NW 17:39:40 10° NNE visible
25 Oct 4.1 19:18:54 10° NW 19:21:31 15° N 19:21:55 15° N visible
26 Oct 2.8 17:12:16 10° WSW 17:15:59 36° NW 17:20:13 10° NNE visible
26 Oct 4.0 18:59:21 10° NW 19:02:00 15° N 19:03:04 14° N visible
27 Oct 2.7 16:52:46 10° WSW 16:56:30 38° NW 17:00:47 10° NNE visible
27 Oct 4.0 18:39:48 10° NW 18:42:29 15° N 18:44:13 13° NNE visible
28 Oct 4.0 18:20:15 10° NW 18:22:58 16° NNW 18:25:19 12° NNE visible
28 Oct 4.6 20:06:25 10° NNW 20:06:49 11° NNW 20:06:49 11° NNW visible
